OK1FET-5 Weather Reports


Display with metric or nautical units.
time (UTC)temp
F
wind
direction
speed
MPH
gust
MPH
rain 1hr
in
rain 24hr
in
rain mn
in
humidity
%
barometer
mb
20220706034420 58 51 1.0 2.0 0.00 0.00 0.00 71 1020.9
20220706034415 58 51 1.0 2.0 0.00 0.00 0.00 71 1020.9
20220706033920 58 61 1.0 1.0 0.00 0.00 0.00 71 1020.7
20220706033915 58 61 1.0 1.0 0.00 0.00 0.00 71 1020.7
20220706033420 57 357 1.0 2.0 0.00 0.00 0.00 70 1020.6
20220706033416 57 357 1.0 2.0 0.00 0.00 0.00 70 1020.6
20220706032920 57 336 2.0 5.0 0.00 0.00 0.00 71 1020.5
20220706032916 57 336 2.0 5.0 0.00 0.00 0.00 71 1020.5
20220706032421 57 350 2.0 4.0 0.00 0.00 0.00 71 1020.4
20220706032416 57 350 2.0 4.0 0.00 0.00 0.00 71 1020.4
20220706031921 56 330 1.0 2.0 0.00 0.00 0.00 71 1020.5
20220706031916 56 330 1.0 2.0 0.00 0.00 0.00 71 1020.5
20220706031416 56 353 2.0 3.0 0.00 0.00 0.00 71 1020.4
20220706030917 56 341 2.0 3.0 0.00 0.00 0.00 71 1020.5
20220706030423 56 338 1.0 2.0 0.00 0.00 0.00 71 1020.4
20220706030421 56 338 1.0 2.0 0.00 0.00 0.00 71 1020.4
20220706030417 56 338 1.0 2.0 0.00 0.00 0.00 71 1020.4
20220706025922 57 336 1.0 2.0 0.00 0.00 0.00 70 1020.4
20220706025917 57 336 1.0 2.0 0.00 0.00 0.00 70 1020.4
20220706025422 57 322 1.0 2.0 0.00 0.00 0.00 70 1020.4
20220706025417 57 322 1.0 2.0 0.00 0.00 0.00 70 1020.4
20220706024922 57 336 1.0 2.0 0.00 0.00 0.00 70 1020.4
20220706024917 57 336 1.0 2.0 0.00 0.00 0.00 70 1020.4
20220706024422 58 331 1.0 3.0 0.00 0.00 0.00 70 1020.4
20220706024418 58 331 1.0 3.0 0.00 0.00 0.00 70 1020.4
20220706023923 58 317 1.0 3.0 0.00 0.00 0.00 70 1020.3
20220706023918 58 317 1.0 3.0 0.00 0.00 0.00 70 1020.3
20220706023423 58 330 2.0 4.0 0.00 0.00 0.00 70 1020.2
20220706023418 58 330 2.0 4.0 0.00 0.00 0.00 70 1020.2
20220706022923 58 337 3.0 9.0 0.00 0.00 0.00 70 1020.2
20220706022918 58 337 3.0 9.0 0.00 0.00 0.00 70 1020.2
20220706022423 58 20 3.0 6.0 0.00 0.00 0.00 70 1020.3
20220706022418 58 20 3.0 6.0 0.00 0.00 0.00 70 1020.3
20220706021923 58 11 3.0 13.0 0.00 0.00 0.00 71 1020.2
20220706021918 58 11 3.0 13.0 0.00 0.00 0.00 71 1020.2
20220706021423 58 353 2.0 6.0 0.00 0.00 0.00 71 1020.2
20220706021418 58 353 2.0 6.0 0.00 0.00 0.00 71 1020.2
20220706020923 58 358 2.0 3.0 0.00 0.00 0.00 71 1020.2
20220706020918 58 358 2.0 3.0 0.00 0.00 0.00 71 1020.2
20220706020423 58 18 2.0 4.0 0.00 0.00 0.00 71 1020.1
20220706020419 58 18 2.0 4.0 0.00 0.00 0.00 71 1020.1
20220706015923 58 8 2.0 3.0 0.00 0.00 0.00 71 1020.0
20220706015919 58 8 2.0 3.0 0.00 0.00 0.00 71 1020.0
20220706015423 58 13 3.0 5.0 0.00 0.00 0.00 71 1020.1
20220706015419 58 13 3.0 5.0 0.00 0.00 0.00 71 1020.1
20220706014924 58 19 3.0 4.0 0.00 0.00 0.00 71 1020.1
20220706014919 58 19 3.0 4.0 0.00 0.00 0.00 71 1020.1
20220706014424 58 341 3.0 5.0 0.00 0.00 0.00 69 1020.2
20220706014419 58 341 3.0 5.0 0.00 0.00 0.00 69 1020.2
20220706013924 58 8 2.0 5.0 0.00 0.00 0.00 69 1020.1
20220706013919 58 8 2.0 5.0 0.00 0.00 0.00 69 1020.1
20220706013424 59 353 3.0 4.0 0.00 0.00 0.00 68 1020.2
20220706013419 59 353 3.0 4.0 0.00 0.00 0.00 68 1020.2
20220706012924 59 32 3.0 5.0 0.00 0.00 0.00 68 1020.2
20220706012919 59 32 3.0 5.0 0.00 0.00 0.00 68 1020.2
20220706012424 59 316 2.0 4.0 0.00 0.00 0.00 67 1020.2
20220706012419 59 316 2.0 4.0 0.00 0.00 0.00 67 1020.2
20220706011448 60 346 3.0 6.0 0.00 0.00 0.00 66 1020.3
20220706011441 0 346 3.0 0.0 0.00 0.00 0.00
20220706011436 60 346 3.0 6.0 0.00 0.00 0.00 66 1020.3
20220706011424 60 346 3.0 6.0 0.00 0.00 0.00 66 1020.3
20220706011419 60 346 3.0 6.0 0.00 0.00 0.00 66 1020.3
20220706011004 0 359 82.0 0.0 0.00 0.00 0.00 66 1020.4
20220706010955 0 359 82.0 0.0 0.00 0.00 0.00 66 1020.4
20220706010948 0 359 82.0 0.0 0.00 0.00 0.00 66 1020.4
20220706010941 60 359 2.0 4.0 0.00 0.00 0.00 66 1020.4
20220706010936 60 359 2.0 4.0 0.00 0.00 0.00 66 1020.4
20220706010924 60 359 2.0 4.0 0.00 0.00 0.00 66 1020.4
20220706010919 60 359 2.0 4.0 0.00 0.00 0.00 66 1020.4
20220706010424 60 360 3.0 4.0 0.00 0.00 0.00 65 1020.5
20220706010419 60 360 3.0 4.0 0.00 0.00 0.00 65 1020.5
20220706005924 61 357 4.0 7.0 0.00 0.00 0.00 65 1020.5
20220706005919 61 357 4.0 7.0 0.00 0.00 0.00 65 1020.5
20220706005424 61 347 4.0 8.0 0.00 0.00 0.00 65 1020.4
20220706005419 61 347 4.0 8.0 0.00 0.00 0.00 65 1020.4
20220706004924 62 0 3.0 6.0 0.00 0.00 0.00 64 1020.4
20220706004919 62 0 3.0 6.0 0.00 0.00 0.00 64 1020.4
20220706004424 62 15 3.0 5.0 0.00 0.00 0.00 63 1020.5
20220706004419 62 15 3.0 5.0 0.00 0.00 0.00 63 1020.5
20220706003925 62 5 3.0 5.0 0.00 0.00 0.00 63 1020.3
20220706003919 62 5 3.0 5.0 0.00 0.00 0.00 63 1020.3
20220706003424 62 4 2.0 4.0 0.00 0.00 0.00 62 1020.3
20220706003419 62 4 2.0 4.0 0.00 0.00 0.00 62 1020.3
20220706002934 62 21 3.0 4.0 0.00 0.00 0.00 62 0.1
20220706002928 62 21 3.0 4.0 0.00 0.00 0.00 62 0.1
20220706002924 62 21 3.0 4.0 0.00 0.00 0.00 62 1020.5
20220706002919 62 21 3.0 4.0 0.00 0.00 0.00 62 1020.5
20220706002436 61 330 3.0 7.0 0.00 0.00 0.00 63 1020.5
20220706002434 61 330 3.0 7.0 0.00 0.00 0.00 63 1020.5
20220706002428 61 330 3.0 7.0 0.00 0.00 0.00 63 1020.5
20220706002423 61 330 3.0 7.0 0.00 0.00 0.00 63 1020.5
20220706002419 61 330 3.0 7.0 0.00 0.00 0.00 63 1020.5
20220706001923 61 6 1.0 4.0 0.00 0.00 0.00 64 1020.5
20220706001919 61 6 1.0 4.0 0.00 0.00 0.00 64 1020.5
20220706001423 61 324 2.0 3.0 0.00 0.00 0.00 64 1020.4
20220706001419 61 324 2.0 3.0 0.00 0.00 0.00 64 1020.4
20220706000923 62 322 2.0 3.0 0.00 0.00 0.00 62 1020.4
20220706000918 62 322 2.0 3.0 0.00 0.00 0.00 62 1020.4
20220706000423 63 316 2.0 3.0 0.00 0.00 0.00 60 1020.2
20220706000418 63 316 2.0 3.0 0.00 0.00 0.00 60 1020.2
20220705235923 63 315 3.0 4.0 0.00 0.00 0.00 58 1020.2
20220705235918 63 315 3.0 4.0 0.00 0.00 0.00 58 1020.2
20220705235423 64 318 3.0 4.0 0.00 0.00 0.00 57 1020.1
20220705235418 64 318 3.0 4.0 0.00 0.00 0.00 57 1020.1
20220705234922 64 324 3.0 3.0 0.00 0.00 0.00 57 1020.0
20220705234918 64 324 3.0 3.0 0.00 0.00 0.00 57 1020.0
20220705234422 64 318 2.0 3.0 0.00 0.00 0.00 57 1020.0
20220705234418 64 318 2.0 3.0 0.00 0.00 0.00 57 1020.0
20220705233922 64 322 3.0 4.0 0.00 0.00 0.00 57 1020.0
20220705233917 64 322 3.0 4.0 0.00 0.00 0.00 57 1020.0
20220705233422 64 316 2.0 5.0 0.00 0.00 0.00 57 1020.0
20220705233417 64 316 2.0 5.0 0.00 0.00 0.00 57 1020.0
20220705232922 63 328 2.0 3.0 0.00 0.00 0.00 58 1020.0
20220705232917 63 328 2.0 3.0 0.00 0.00 0.00 58 1020.0
20220705232421 63 316 3.0 3.0 0.00 0.00 0.00 58 1020.1
20220705232417 63 316 3.0 3.0 0.00 0.00 0.00 58 1020.1
20220705231921 63 324 2.0 3.0 0.00 0.00 0.00 59 1020.1
20220705231917 63 324 2.0 3.0 0.00 0.00 0.00 59 1020.1
20220705231421 63 316 2.0 3.0 0.00 0.00 0.00 59 1020.0
20220705231417 63 316 2.0 3.0 0.00 0.00 0.00 59 1020.0
20220705230921 63 319 3.0 3.0 0.00 0.00 0.00 60 1020.0
20220705230916 63 319 3.0 3.0 0.00 0.00 0.00 60 1020.0
20220705230416 63 315 3.0 4.0 0.00 0.00 0.00 59 1020.0
20220705225921 63 318 2.0 3.0 0.00 0.00 0.00 57 1020.0
20220705225916 63 318 2.0 3.0 0.00 0.00 0.00 57 1020.0
20220705225421 64 318 3.0 4.0 0.00 0.00 0.00 57
20220705225416 64 318 3.0 4.0 0.00 0.00 0.00 57 1020.1
20220705224916 64 315 2.0 3.0 0.00 0.00 0.00 56 1020.1
20220705224501 64 322 2.0 4.0 0.00 0.00 0.00 56 1020.1
20220705224452 64 322 2.0 4.0 0.00 0.00 0.00 56 1020.1
20220705224445 64 322 2.0 4.0 0.00 0.00 0.00 56 1020.1
20220705224437 64 322 2.0 4.0 0.00 0.00 0.00 56 1020.1
20220705224433 64 322 2.0 4.0 0.00 0.00 0.00 56 1020.1
20220705224431 64 322 2.0 4.0 0.00 0.00 0.00 56 1020.1
20220705224420 64 322 2.0 4.0 0.00 0.00 0.00 56 1020.1
20220705224416 64 322 2.0 4.0 0.00 0.00 0.00 56 1020.1
20220705223920 64 336 2.0 2.0 0.00 0.00 0.00 56 1020.2
20220705223915 64 336 2.0 2.0 0.00 0.00 0.00 56 1020.2
20220705223420 63 331 2.0 4.0 0.00 0.00 0.00 56 1020.2
20220705223415 63 331 2.0 4.0 0.00 0.00 0.00 56 1020.2
20220705222920 63 318 2.0 4.0 0.00 0.00 0.00 57 1020.2
20220705222915 63 318 2.0 4.0 0.00 0.00 0.00 57 1020.2
20220705222420 63 14 1.0 3.0 0.00 0.00 0.00 56 1020.2
20220705222415 63 14 1.0 3.0 0.00 0.00 0.00 56 1020.2
20220705221920 62 338 1.0 2.0 0.00 0.00 0.00 58 1020.1
20220705221915 62 338 1.0 2.0 0.00 0.00 0.00 58 1020.1
20220705221421 63 321 1.0 3.0 0.00 0.00 0.00 57 1020.1
20220705221415 63 321 1.0 3.0 0.00 0.00 0.00 57 1020.1
20220705220920 63 338 1.0 3.0 0.00 0.00 0.00 60 1020.2
20220705220915 63 338 1.0 3.0 0.00 0.00 0.00 60 1020.2
20220705220419 64 335 2.0 4.0 0.00 0.00 0.00 59 1020.4
20220705220415 64 335 2.0 4.0 0.00 0.00 0.00 59 1020.4
20220705215919 64 305 3.0 4.0 0.00 0.00 0.00 57 1020.5
20220705215914 64 305 3.0 4.0 0.00 0.00 0.00 57 1020.5
20220705215419 65 309 3.0 4.0 0.00 0.00 0.00 56 1020.6
20220705215414 65 309 3.0 4.0 0.00 0.00 0.00 56 1020.6
20220705214919 65 315 3.0 4.0 0.00 0.00 0.00 53 1020.4
20220705214914 65 315 3.0 4.0 0.00 0.00 0.00 53 1020.4
20220705214418 65 309 2.0 2.0 0.00 0.00 0.00 52 1020.2
20220705214414 65 309 2.0 2.0 0.00 0.00 0.00 52 1020.2
20220705213918 65 331 1.0 2.0 0.00 0.00 0.00 53 1020.1
20220705213913 65 331 1.0 2.0 0.00 0.00 0.00 53 1020.1
20220705213418 65 21 2.0 3.0 0.00 0.00 0.00 54 1019.9
20220705213413 65 21 2.0 3.0 0.00 0.00 0.00 54 1019.9
20220705212918 65 12 2.0 4.0 0.00 0.00 0.00 53 1019.8
20220705212913 65 12 2.0 4.0 0.00 0.00 0.00 53 1019.8
20220705212417 66 225 1.0 1.0 0.00 0.00 0.00 50 1019.7
20220705212413 66 225 1.0 1.0 0.00 0.00 0.00 50 1019.7
20220705211917 67 286 1.0 2.0 0.00 0.00 0.00 50 1019.8
20220705211912 67 286 1.0 2.0 0.00 0.00 0.00 50 1019.8
20220705211417 68 318 2.0 2.0 0.00 0.00 0.00 47 1019.7
20220705211412 68 318 2.0 2.0 0.00 0.00 0.00 47 1019.7
20220705210916 68 324 1.0 2.0 0.00 0.00 0.00 46 1019.6
20220705210911 68 324 1.0 2.0 0.00 0.00 0.00 46 1019.6
20220705210416 68 318 1.0 2.0 0.00 0.00 0.00 46 1019.6
20220705210411 68 318 1.0 2.0 0.00 0.00 0.00 46 1019.6
20220705205911 68 341 1.0 2.0 0.00 0.00 0.00 46 1019.7
20220705205410 69 315 1.0 2.0 0.00 0.00 0.00 46 1019.7
20220705204910 69 353 1.0 2.0 0.00 0.00 0.00 45 1019.7
20220705204409 69 0 1.0 2.0 0.00 0.00 0.00 45 1019.7
20220705203913 69 0 1.0 2.0 0.00 0.00 0.00 46 1019.7
20220705203909 69 0 1.0 2.0 0.00 0.00 0.00 46 1019.7
20220705203413 69 0 1.0 2.0 0.00 0.00 0.00 46 1019.7
20220705203408 69 0 1.0 2.0 0.00 0.00 0.00 46 1019.7
20220705202913 69 0 1.0 2.0 0.00 0.00 0.00 46 1019.7
20220705202908 69 0 1.0 2.0 0.00 0.00 0.00 46 1019.7
20220705202412 69 0 1.0 2.0 0.00 0.00 0.00 46 1019.6
20220705202407 69 0 1.0 2.0 0.00 0.00 0.00 46 1019.6
20220705201912 69 0 1.0 2.0 0.00 0.00 0.00 46 1019.6
20220705201907 69 0 1.0 2.0 0.00 0.00 0.00 46 1019.6
20220705201411 69 0 1.0 2.0 0.00 0.00 0.00 46 1019.6
20220705200911 69 0 1.0 2.0 0.00 0.00 0.00 46 1019.6
20220705200906 69 0 1.0 2.0 0.00 0.00 0.00 46 1019.6
20220705200410 69 6 1.0 2.0 0.00 0.00 0.00 46 1019.6
20220705200406 69 6 1.0 2.0 0.00 0.00 0.00 46 1019.6
20220705195910 69 350 1.0 2.0 0.00 0.00 0.00 46 1019.6
20220705195905 69 350 1.0 2.0 0.00 0.00 0.00 46 1019.6
20220705195410 69 319 1.0 2.0 0.00 0.00 0.00 46
20220705195405 69 319 1.0 2.0 0.00 0.00 0.00 46 1019.6
20220705194911 69 316 1.0 1.0 0.00 0.00 0.00 45 1059.2
20220705194909 69 316 1.0 1.0 0.00 0.00 0.00 45 1019.6
20220705194904 69 316 1.0 1.0 0.00 0.00 0.00 45 1019.6
20220705194409 69 333 1.0 2.0 0.00 0.00 0.00 45 1019.5
20220705194404 69 333 1.0 2.0 0.00 0.00 0.00 45 1019.5
20220705193908 69 321 1.0 2.0 0.00 0.00 0.00 45 1019.5
20220705193903 69 321 1.0 2.0 0.00 0.00 0.00 45 1019.5
20220705193408 69 353 1.0 2.0 0.00 0.00 0.00 45 1019.4
20220705193403 69 353 1.0 2.0 0.00 0.00 0.00 45 1019.4
20220705192907 69 348 1.0 2.0 0.00 0.00 0.00 45 1019.4
20220705192903 69 348 1.0 2.0 0.00 0.00 0.00 45 1019.4
20220705192407 69 357 1.0 1.0 0.00 0.00 0.00 43 1019.3
20220705192402 69 357 1.0 1.0 0.00 0.00 0.00 43 1019.3
20220705191906 69 321 1.0 2.0 0.00 0.00 0.00 43 1019.2
20220705191902 69 321 1.0 2.0 0.00 0.00 0.00 43 1019.2
20220705191406 69 327 1.0 2.0 0.00 0.00 0.00 43 1019.2
20220705191401 69 327 1.0 2.0 0.00 0.00 0.00 43 1019.2
20220705190906 70 331 1.0 1.0 0.00 0.00 0.00 43
20220705190901 70 331 1.0 1.0 0.00 0.00 0.00 43 1019.2
20220705190405 70 334 1.0 2.0 0.00 0.00 0.00 43 1019.1
20220705190400 70 334 1.0 2.0 0.00 0.00 0.00 43 1019.1
20220705185904 70 319 1.0 2.0 0.00 0.00 0.00 43 1019.1
20220705185900 70 319 1.0 2.0 0.00 0.00 0.00 43 1019.1
20220705185404 70 0 1.0 2.0 0.00 0.00 0.00 42 1019.1
20220705185359 70 0 1.0 2.0 0.00 0.00 0.00 42 1019.1
20220705184905 70 16 1.0 2.0 0.00 0.00 0.00 42 1019.1
20220705184903 70 16 1.0 2.0 0.00 0.00 0.00 42 1019.1
20220705184859 70 16 1.0 2.0 0.00 0.00 0.00 42 1019.1
20220705184403 70 354 1.0 2.0 0.00 0.00 0.00 42 1019.1
20220705184358 70 354 1.0 2.0 0.00 0.00 0.00 42 1019.1
20220705183902 70 319 1.0 1.0 0.00 0.00 0.00 43 1019.1
20220705183858 70 319 1.0 1.0 0.00 0.00 0.00 43 1019.1
20220705183357 70 319 1.0 1.0 0.00 0.00 0.00 42 1019.0
20220705182856 70 331 1.0 2.0 0.00 0.00 0.00 42 1019.0
20220705182356 71 322 1.0 1.0 0.00 0.00 0.00 43 1019.0
20220705181902 71 318 1.0 2.0 0.00 0.00 0.00 43 1019.0
20220705181900 71 318 1.0 2.0 0.00 0.00 0.00 43 1019.0
20220705181855 71 318 1.0 2.0 0.00 0.00 0.00 43 1019.0
20220705181359 71 324 1.0 2.0 0.00 0.00 0.00 42 1019.0
20220705181355 71 324 1.0 2.0 0.00 0.00 0.00 42 1019.0
20220705180859 71 327 1.0 1.0 0.00 0.00 0.00 42 1019.1
20220705180854 71 327 1.0 1.0 0.00 0.00 0.00 42 1019.1
20220705180358 71 325 1.0 2.0 0.00 0.00 0.00 42 1019.0
20220705180354 71 325 1.0 2.0 0.00 0.00 0.00 42 1019.0
20220705175858 71 322 1.0 2.0 0.00 0.00 0.00 41 1019.0
20220705175853 71 322 1.0 2.0 0.00 0.00 0.00 41 1019.0
20220705175357 72 315 1.0 1.0 0.00 0.00 0.00 41 1019.0
20220705175352 72 315 1.0 1.0 0.00 0.00 0.00 41 1019.0
20220705174856 72 333 1.0 2.0 0.00 0.00 0.00 41 1018.9
20220705174852 72 333 1.0 2.0 0.00 0.00 0.00 41 1018.9
20220705174356 73 315 1.0 2.0 0.00 0.00 0.00 41 1018.9
20220705174351 73 315 1.0 2.0 0.00 0.00 0.00 41 1018.9
20220705173855 73 325 1.0 2.0 0.00 0.00 0.00 40 1019.0
20220705173850 73 325 1.0 2.0 0.00 0.00 0.00 40 1019.0
20220705173354 74 338 1.0 2.0 0.00 0.00 0.00 40 1019.0
20220705173349 74 338 1.0 2.0 0.00 0.00 0.00 40 1019.0
20220705172853 74 327 1.0 2.0 0.00 0.00 0.00 40 1019.0
20220705172849 74 327 1.0 2.0 0.00 0.00 0.00 40 1019.0
20220705172352 75 316 1.0 2.0 0.00 0.00 0.00 39 1018.9
20220705172348 75 316 1.0 2.0 0.00 0.00 0.00 39 1018.9
20220705171852 75 307 1.0 2.0 0.00 0.00 0.00 38 1018.9
20220705171847 75 307 1.0 2.0 0.00 0.00 0.00 38 1018.9
20220705171351 76 355 1.0 2.0 0.00 0.00 0.00 38 1019.0
20220705171346 76 355 1.0 2.0 0.00 0.00 0.00 38 1019.0
20220705170850 76 6 1.0 2.0 0.00 0.00 0.00 38 1018.9
20220705170845 76 6 1.0 2.0 0.00 0.00 0.00 38 1018.9
20220705170344 76 324 1.0 3.0 0.00 0.00 0.00 37 1018.9
20220705165843 77 352 1.0 3.0 0.00 0.00 0.00 38 1018.9
20220705165342 77 338 1.0 2.0 0.00 0.00 0.00 38 1018.9
20220705164841 77 7 1.0 3.0 0.00 0.00 0.00 38 1019.0
20220705164340 77 11 1.0 3.0 0.00 0.00 0.00 38 1019.0
20220705163839 77 5 1.0 3.0 0.00 0.00 0.00 38 1019.0
20220705163338 77 318 1.0 2.0 0.00 0.00 0.00 38 1019.0
20220705162837 78 358 2.0 3.0 0.00 0.00 0.00 38 1019.0
20220705162340 78 343 2.0 3.0 0.00 0.00 0.00 38 1019.0
20220705162335 78 343 2.0 3.0 0.00 0.00 0.00 38 1019.0
20220705161839 79 335 1.0 2.0 0.00 0.00 0.00 38 1019.0
20220705161834 79 335 1.0 2.0 0.00 0.00 0.00 38 1019.0
20220705161338 79 327 1.0 2.0 0.00 0.00 0.00 38 1019.0
20220705161333 79 327 1.0 2.0 0.00 0.00 0.00 38 1019.0
20220705160837 79 356 1.0 3.0 0.00 0.00 0.00 38 1019.0
20220705160832 79 356 1.0 3.0 0.00 0.00 0.00 38 1019.0
20220705160335 78 331 1.0 3.0 0.00 0.00 0.00 38 1019.0
20220705160331 78 331 1.0 3.0 0.00 0.00 0.00 38 1019.0
20220705155834 78 2 2.0 3.0 0.00 0.00 0.00 37 1019.0
20220705155829 78 2 2.0 3.0 0.00 0.00 0.00 37 1019.0
20220705155333 80 13 1.0 2.0 0.00 0.00 0.00 37 1019.1
20220705155328 80 13 1.0 2.0 0.00 0.00 0.00 37 1019.1
20220705154832 80 3 1.0 2.0 0.00 0.00 0.00 37 1019.1
20220705154827 80 3 1.0 2.0 0.00 0.00 0.00 37 1019.1
20220705154330 79 25 1.0 3.0 0.00 0.00 0.00 38 1019.1
20220705154326 79 25 1.0 3.0 0.00 0.00 0.00 38 1019.1
20220705153829 0 359 1.0 1.0 0.00 0.00 0.00 39
20220705153825 78 359 1.0 4.0 0.00 0.00 0.00 39 1019.1
20220705153323 77 343 2.0 2.0 0.00 0.00 0.00 39 1019.1
20220705152822 77 354 2.0 3.0 0.00 0.00 0.00 38 1019.1
20220705152321 77 353 2.0 3.0 0.00 0.00 0.00 39 1019.2
20220705151820 77 331 2.0 3.0 0.00 0.00 0.00 39 1019.1
20220705151324 77 352 2.0 3.0 0.00 0.00 0.00 39 1019.2
20220705151319 77 352 2.0 3.0 0.00 0.00 0.00 39 1019.2
20220705150823 77 348 2.0 3.0 0.00 0.00 0.00 39 1019.2
20220705150321 77 330 2.0 4.0 0.00 0.00 0.00 39 1019.2
20220705150317 77 330 2.0 4.0 0.00 0.00 0.00 39 1019.2
20220705145820 77 348 4.0 6.0 0.00 0.00 0.00 38
20220705145816 77 348 4.0 6.0 0.00 0.00 0.00 38 1019.1
20220705145319 78 334 3.0 5.0 0.00 0.00 0.00 38 1019.1
20220705145315 78 334 3.0 5.0 0.00 0.00 0.00 38 1019.1
20220705144820 79 5 3.0 5.0 0.00 0.00 0.00 36 1019.0
20220705144818 79 5 3.0 5.0 0.00 0.00 0.00 36 1019.0
20220705144813 79 5 3.0 5.0 0.00 0.00 0.00 36 1019.0
20220705144317 80 23 2.0 5.0 0.00 0.00 0.00 37 1018.9
20220705144312 80 23 2.0 5.0 0.00 0.00 0.00 37 1018.9
20220705143815 80 7 3.0 4.0 0.00 0.00 0.00 38 1019.1
20220705143811 80 7 3.0 4.0 0.00 0.00 0.00 38 1019.1
20220705143314 80 22 2.0 4.0 0.00 0.00 0.00 38 1019.1
20220705143309 80 22 2.0 4.0 0.00 0.00 0.00 38 1019.1
20220705142813 80 39 2.0 4.0 0.00 0.00 0.00 39 1019.2
20220705142808 80 39 2.0 4.0 0.00 0.00 0.00 39 1019.2
20220705142313 80 36 1.0 3.0 0.00 0.00 0.00 39 1019.2
20220705142311 80 36 1.0 3.0 0.00 0.00 0.00 39 1019.2
20220705142307 80 36 1.0 3.0 0.00 0.00 0.00 39 1019.2
20220705141810 80 256 1.0 3.0 0.00 0.00 0.00 38 1019.3
20220705141805 80 256 1.0 3.0 0.00 0.00 0.00 38 1019.3
20220705141309 79 302 1.0 3.0 0.00 0.00 0.00 40 1019.3
20220705141304 79 302 1.0 3.0 0.00 0.00 0.00 40 1019.3
20220705140808 78 26 1.0 2.0 0.00 0.00 0.00 40 1019.2
20220705140803 78 26 1.0 2.0 0.00 0.00 0.00 40 1019.2
20220705140306 78 12 2.0 4.0 0.00 0.00 0.00 39 1019.2
20220705140302 78 12 2.0 4.0 0.00 0.00 0.00 39 1019.2
20220705135805 78 350 2.0 4.0 0.00 0.00 0.00 38 1019.3
20220705135801 78 350 2.0 4.0 0.00 0.00 0.00 38 1019.3
20220705135304 79 349 1.0 2.0 0.00 0.00 0.00 39 1019.2
20220705135259 79 349 1.0 2.0 0.00 0.00 0.00 39 1019.2
20220705134803 79 342 2.0 3.0 0.00 0.00 0.00 38 1019.2
20220705134758 79 342 2.0 3.0 0.00 0.00 0.00 38 1019.2
20220705134301 80 328 2.0 3.0 0.00 0.00 0.00 38 1019.2
20220705134257 80 328 2.0 3.0 0.00 0.00 0.00 38 1019.2
20220705133800 81 72 2.0 5.0 0.00 0.00 0.00 37 1019.2
20220705133755 81 72 2.0 5.0 0.00 0.00 0.00 37 1019.2
20220705133258 81 52 2.0 3.0 0.00 0.00 0.00 37 1019.2
20220705133254 81 52 2.0 3.0 0.00 0.00 0.00 37 1019.2
20220705132757 81 208 1.0 3.0 0.00 0.00 0.00 37 1019.3
20220705132255 81 113 2.0 4.0 0.00 0.00 0.00 37 1019.3
20220705132251 81 113 2.0 4.0 0.00 0.00 0.00 37 1019.3
20220705131754 81 36 2.0 3.0 0.00 0.00 0.00 37 1019.4
20220705131749 81 36 2.0 3.0 0.00 0.00 0.00 37 1019.4
20220705131252 81 38 2.0 3.0 0.00 0.00 0.00 38 1019.4
20220705131247 81 38 2.0 3.0 0.00 0.00 0.00 38 1019.4
20220705130751 81 39 3.0 5.0 0.00 0.00 0.00 38 1019.4
20220705130746 81 39 3.0 5.0 0.00 0.00 0.00 38 1019.4
20220705130244 81 24 2.0 5.0 0.00 0.00 0.00 39 1019.4
20220705125743 82 341 2.0 4.0 0.00 0.00 0.00 38 1019.4
20220705125241 83 61 2.0 3.0 0.00 0.00 0.00 38 1019.4
20220705124739 82 327 1.0 2.0 0.00 0.00 0.00 39 1019.4
20220705124237 82 312 3.0 5.0 0.00 0.00 0.00 39 1019.5
20220705123736 82 356 2.0 3.0 0.00 0.00 0.00 40 1019.5
20220705123234 81 76 1.0 2.0 0.00 0.00 0.00 40 1019.5
20220705122732 80 291 1.0 3.0 0.00 0.00 0.00 41 1019.5
20220705122231 79 357 1.0 3.0 0.00 0.00 0.00 41 1019.5
20220705121729 80 69 2.0 5.0 0.00 0.00 0.00 40 1019.6
20220705121227 81 90 2.0 4.0 0.00 0.00 0.00 41 1019.5
20220705120726 81 13 1.0 2.0 0.00 0.00 0.00 41 1019.7
20220705120224 80 351 3.0 4.0 0.00 0.00 0.00 41 1019.7
20220705115722 80 51 2.0 3.0 0.00 0.00 0.00 41 1019.8
20220705115220 80 80 2.0 3.0 0.00 0.00 0.00 41 1019.9
20220705114719 80 28 1.0 2.0 0.00 0.00 0.00 43 1019.8
20220705114217 79 351 1.0 2.0 0.00 0.00 0.00 44 1019.9
20220705113716 79 346 1.0 3.0 0.00 0.00 0.00 43 1019.9
20220705113219 79 262 2.0 3.0 0.00 0.00 0.00 42 1019.9
20220705113215 79 262 2.0 3.0 0.00 0.00 0.00 42 1019.9
20220705112718 80 126 2.0 2.0 0.00 0.00 0.00 42 1020.0
20220705112713 80 126 2.0 2.0 0.00 0.00 0.00 42 1020.0
20220705112216 79 281 2.0 3.0 0.00 0.00 0.00 42 1019.9
20220705112211 79 281 2.0 3.0 0.00 0.00 0.00 42 1019.9
20220705111715 78 44 2.0 4.0 0.00 0.00 0.00 41 1020.0
20220705111710 78 44 2.0 4.0 0.00 0.00 0.00 41 1020.0
20220705111213 79 354 2.0 5.0 0.00 0.00 0.00 41 1020.1
20220705111208 79 354 2.0 5.0 0.00 0.00 0.00 41 1020.1
20220705110712 80 288 2.0 3.0 0.00 0.00 0.00 41 1020.1
20220705110707 80 288 2.0 3.0 0.00 0.00 0.00 41 1020.1
20220705110210 81 35 3.0 5.0 0.00 0.00 0.00 39 1020.1
20220705110205 81 35 3.0 5.0 0.00 0.00 0.00 39 1020.1
20220705105708 82 354 2.0 2.0 0.00 0.00 0.00 41 1020.0
20220705105703 82 354 2.0 2.0 0.00 0.00 0.00 41 1020.0
20220705105206 82 200 2.0 5.0 0.00 0.00 0.00 40 1020.1
20220705105202 82 200 2.0 5.0 0.00 0.00 0.00 40 1020.1
20220705104705 82 333 3.0 7.0 0.00 0.00 0.00 41 1020.1
20220705104700 82 333 3.0 7.0 0.00 0.00 0.00 41 1020.1
20220705104203 81 309 2.0 4.0 0.00 0.00 0.00 41 1020.1
20220705104158 81 309 2.0 4.0 0.00 0.00 0.00 41 1020.1
20220705103701 80 328 2.0 4.0 0.00 0.00 0.00 42 1020.1
20220705103656 80 328 2.0 4.0 0.00 0.00 0.00 42 1020.1
20220705103159 81 95 1.0 3.0 0.00 0.00 0.00 40 1020.0
20220705103155 81 95 1.0 3.0 0.00 0.00 0.00 40 1020.0
20220705102657 81 337 2.0 3.0 0.00 0.00 0.00 43 1020.0
20220705102653 81 337 2.0 3.0 0.00 0.00 0.00 43 1020.0
20220705102156 80 61 2.0 4.0 0.00 0.00 0.00 43 1020.1
20220705102151 80 61 2.0 4.0 0.00 0.00 0.00 43 1020.1
20220705101654 80 49 2.0 3.0 0.00 0.00 0.00 41 1020.0
20220705101649 80 49 2.0 3.0 0.00 0.00 0.00 41 1020.0
20220705101152 81 350 3.0 4.0 0.00 0.00 0.00 41 1020.1
20220705101147 81 350 3.0 4.0 0.00 0.00 0.00 41 1020.1
20220705100650 81 333 2.0 3.0 0.00 0.00 0.00 43 1020.1
20220705100645 81 333 2.0 3.0 0.00 0.00 0.00 43 1020.1
20220705100148 81 71 2.0 4.0 0.00 0.00 0.00 41 1020.0
20220705095646 82 85 2.0 4.0 0.00 0.00 0.00 43 1020.1
20220705095641 82 85 2.0 4.0 0.00 0.00 0.00 43 1020.1
20220705095144 82 350 1.0 3.0 0.00 0.00 0.00 44 1020.1
20220705095139 82 350 1.0 3.0 0.00 0.00 0.00 44 1020.1
20220705094642 81 79 2.0 3.0 0.00 0.00 0.00 44 1020.1
20220705094637 81 79 2.0 3.0 0.00 0.00 0.00 44 1020.1
20220705094140 81 86 2.0 4.0 0.00 0.00 0.00 42 1020.0
20220705094135 81 86 2.0 4.0 0.00 0.00 0.00 42 1020.0
20220705093633 81 19 2.0 3.0 0.00 0.00 0.00 45 1020.1
20220705093131 80 25 2.0 4.0 0.00 0.00 0.00 43 1020.0
20220705092629 80 20 2.0 3.0 0.00 0.00 0.00 46 1020.1
20220705092128 79 359 2.0 2.0 0.00 0.00 0.00 47 1020.1
20220705091626 80 346 2.0 3.0 0.00 0.00 0.00 47 1020.1
20220705091124 81 11 2.0 3.0 0.00 0.00 0.00 47 1020.1
20220705090622 80 356 2.0 4.0 0.00 0.00 0.00 49 1020.1
20220705090121 79 28 2.0 3.0 0.00 0.00 0.00 48 1020.1
20220705085619 79 342 2.0 3.0 0.00 0.00 0.00 49 1020.1
20220705085118 79 351 1.0 3.0 0.00 0.00 0.00 47 1020.2
20220705084616 79 280 2.0 4.0 0.00 0.00 0.00 49 1020.2
20220705084119 79 330 2.0 3.0 0.00 0.00 0.00 50 1020.2
20220705084114 79 330 2.0 3.0 0.00 0.00 0.00 50 1020.2
20220705083618 78 286 1.0 3.0 0.00 0.00 0.00 51 1020.3
20220705083613 78 286 1.0 3.0 0.00 0.00 0.00 51 1020.3
20220705083116 78 63 2.0 4.0 0.00 0.00 0.00 50 1020.2
20220705083111 78 63 2.0 4.0 0.00 0.00 0.00 50 1020.2
20220705082610 77 325 2.0 4.0 0.00 0.00 0.00 52 1020.2
20220705082109 77 32 2.0 4.0 0.00 0.00 0.00 52 1020.2
20220705081607 77 358 1.0 3.0 0.00 0.00 0.00 53 1020.2
20220705081111 77 348 1.0 3.0 0.00 0.00 0.00 53 1020.2
20220705081106 77 348 1.0 3.0 0.00 0.00 0.00 53 1020.2
20220705080609 78 0 2.0 3.0 0.00 0.00 0.00 52 1020.1
20220705080605 78 0 2.0 3.0 0.00 0.00 0.00 52 1020.1
20220705080108 77 14 1.0 3.0 0.00 0.00 0.00 55 1020.2
20220705080103 77 14 1.0 3.0 0.00 0.00 0.00 55 1020.2
20220705075607 75 5 1.0 3.0 0.00 0.00 0.00 55 1020.2
20220705075602 75 5 1.0 3.0 0.00 0.00 0.00 55 1020.2
20220705075106 75 20 2.0 2.0 0.00 0.00 0.00 52 1020.2
20220705075101 75 20 2.0 2.0 0.00 0.00 0.00 52 1020.2
20220705074604 75 283 1.0 2.0 0.00 0.00 0.00 56 1020.3
20220705074600 75 283 1.0 2.0 0.00 0.00 0.00 56 1020.3
20220705074103 75 304 1.0 3.0 0.00 0.00 0.00 54 1020.2
20220705074059 75 304 1.0 3.0 0.00 0.00 0.00 54 1020.2
20220705073602 76 333 1.0 3.0 0.00 0.00 0.00 55 1020.2
20220705073557 76 333 1.0 3.0 0.00 0.00 0.00 55 1020.2
20220705073101 76 332 2.0 3.0 0.00 0.00 0.00 55 1020.2
20220705073056 76 332 2.0 3.0 0.00 0.00 0.00 55 1020.2
20220705072600 75 351 2.0 3.0 0.00 0.00 0.00 57 1020.2
20220705072555 75 351 2.0 3.0 0.00 0.00 0.00 57 1020.2
20220705072058 75 359 2.0 4.0 0.00 0.00 0.00 57 1020.1
20220705072054 75 359 2.0 4.0 0.00 0.00 0.00 57 1020.1
20220705071557 76 350 2.0 3.0 0.00 0.00 0.00 59 1020.2
20220705071552 76 350 2.0 3.0 0.00 0.00 0.00 59 1020.2
20220705071056 76 333 1.0 4.0 0.00 0.00 0.00 59 1020.1
20220705071051 76 333 1.0 4.0 0.00 0.00 0.00 59 1020.1
20220705070555 74 309 1.0 2.0 0.00 0.00 0.00 61 1020.1
20220705070550 74 309 1.0 2.0 0.00 0.00 0.00 61 1020.1
20220705070054 72 31 1.0 2.0 0.00 0.00 0.00 63 1020.1
20220705070049 72 31 1.0 2.0 0.00 0.00 0.00 63 1020.1
20220705065553 71 344 2.0 3.0 0.00 0.00 0.00 63 1020.1
20220705065548 71 344 2.0 3.0 0.00 0.00 0.00 63 1020.1
20220705065052 70 344 2.0 3.0 0.00 0.00 0.00 63 1020.0
20220705065048 70 344 2.0 3.0 0.00 0.00 0.00 63 1020.0
20220705064552 69 355 2.0 4.0 0.00 0.00 0.00 64 1020.1
20220705064547 69 355 2.0 4.0 0.00 0.00 0.00 64 1020.1
20220705064051 69 332 1.0 2.0 0.00 0.00 0.00 65 1020.1
20220705064046 69 332 1.0 2.0 0.00 0.00 0.00 65 1020.1
20220705063550 68 331 2.0 4.0 0.00 0.00 0.00 64 1020.0
20220705063546 68 331 2.0 4.0 0.00 0.00 0.00 64 1020.0
20220705063050 68 325 2.0 3.0 0.00 0.00 0.00 64 1019.9
20220705063045 68 325 2.0 3.0 0.00 0.00 0.00 64 1019.9
20220705062549 68 348 2.0 4.0 0.00 0.00 0.00 64 1019.8
20220705062545 68 348 2.0 4.0 0.00 0.00 0.00 64 1019.8
20220705062049 68 340 2.0 4.0 0.00 0.00 0.00 65 1019.8
20220705062044 68 340 2.0 4.0 0.00 0.00 0.00 65 1019.8
20220705061548 67 324 3.0 4.0 0.00 0.00 0.00 65 1019.7
20220705061543 67 324 3.0 4.0 0.00 0.00 0.00 65 1019.7
20220705061048 67 322 3.0 5.0 0.00 0.00 0.00 65 1019.7
20220705061043 67 322 3.0 5.0 0.00 0.00 0.00 65 1019.7
20220705060547 67 339 3.0 5.0 0.00 0.00 0.00 65 1019.6
20220705060542 67 339 3.0 5.0 0.00 0.00 0.00 65 1019.6
20220705060047 67 330 2.0 4.0 0.00 0.00 0.00 66 1019.5
20220705060042 67 330 2.0 4.0 0.00 0.00 0.00 66 1019.5
20220705055546 66 334 2.0 4.0 0.00 0.00 0.00 66 1019.5
20220705055541 66 334 2.0 4.0 0.00 0.00 0.00 66 1019.5
20220705055046 66 322 2.0 4.0 0.00 0.00 0.00 66 1019.5
20220705055041 66 322 2.0 4.0 0.00 0.00 0.00 66 1019.5
20220705054546 65 331 2.0 3.0 0.00 0.00 0.00 67 1019.4
20220705054541 65 331 2.0 3.0 0.00 0.00 0.00 67 1019.4
20220705054045 65 322 3.0 4.0 0.00 0.00 0.00 66 1019.4
20220705054040 65 322 3.0 4.0 0.00 0.00 0.00 66 1019.4
20220705053545 65 330 3.0 4.0 0.00 0.00 0.00 66 1019.3
20220705053540 65 330 3.0 4.0 0.00 0.00 0.00 66 1019.3
20220705053045 65 328 2.0 4.0 0.00 0.00 0.00 66 1019.4
20220705053040 65 328 2.0 4.0 0.00 0.00 0.00 66 1019.4
20220705052544 64 327 2.0 3.0 0.00 0.00 0.00 67 1019.3
20220705052539 64 327 2.0 3.0 0.00 0.00 0.00 67 1019.3
20220705052044 64 336 2.0 4.0 0.00 0.00 0.00 67 1019.3
20220705052039 64 336 2.0 4.0 0.00 0.00 0.00 67 1019.3
20220705051544 64 330 3.0 4.0 0.00 0.00 0.00 67 1019.3
20220705051539 64 330 3.0 4.0 0.00 0.00 0.00 67 1019.3
20220705051043 64 336 2.0 4.0 0.00 0.00 0.00 67 1019.4
20220705051039 64 336 2.0 4.0 0.00 0.00 0.00 67 1019.4
20220705050543 63 335 2.0 4.0 0.00 0.00 0.00 67 1019.4
20220705050539 63 335 2.0 4.0 0.00 0.00 0.00 67 1019.4
20220705050043 63 327 2.0 4.0 0.00 0.00 0.00 67 1019.3
20220705050038 63 327 2.0 4.0 0.00 0.00 0.00 67 1019.3
20220705045543 63 338 2.0 3.0 0.00 0.00 0.00 67 1019.3
20220705045538 63 338 2.0 3.0 0.00 0.00 0.00 67 1019.3
20220705045043 63 13 1.0 2.0 0.00 0.00 0.00 67 1019.3
20220705045038 63 13 1.0 2.0 0.00 0.00 0.00 67 1019.3
20220705044543 63 343 1.0 2.0 0.00 0.00 0.00 67 1019.3
20220705044538 63 343 1.0 2.0 0.00 0.00 0.00 67 1019.3
20220705044042 63 318 2.0 3.0 0.00 0.00 0.00 67 1019.3
20220705044038 63 318 2.0 3.0 0.00 0.00 0.00 67 1019.3
20220705043542 63 332 2.0 4.0 0.00 0.00 0.00 67 1019.1
20220705043537 63 332 2.0 4.0 0.00 0.00 0.00 67 1019.1
20220705043037 63 330 2.0 3.0 0.00 0.00 0.00 67 1019.1
20220705042542 62 331 3.0 4.0 0.00 0.00 0.00 67 1019.0
20220705042537 62 331 3.0 4.0 0.00 0.00 0.00 67 1019.0
20220705042042 63 322 2.0 4.0 0.00 0.00 0.00 67 189.1
20220705042037 63 322 2.0 4.0 0.00 0.00 0.00 67 1019.1
20220705041542 0 324 2.0 3.0 0.00 0.00 0.00
20220705041537 63 324 2.0 3.0 0.00 0.00 0.00 67 1019.1
20220705041041 63 325 2.0 4.0 0.00 0.00 0.00 66 1019.1
20220705041037 63 325 2.0 4.0 0.00 0.00 0.00 66 1019.1
20220705040541 63 345 2.0 4.0 0.00 0.00 0.00 66 1019.1
20220705040537 63 345 2.0 4.0 0.00 0.00 0.00 66 1019.1
20220705040041 63 335 2.0 3.0 0.00 0.00 0.00 66 1019.1
20220705040036 63 335 2.0 3.0 0.00 0.00 0.00 66 1019.1
20220705035541 63 331 2.0 3.0 0.00 0.00 0.00 66 1019.0
20220705035536 63 331 2.0 3.0 0.00 0.00 0.00 66 1019.0
20220705035041 63 334 2.0 4.0 0.00 0.00 0.00 66 1019.0
20220705035036 63 334 2.0 4.0 0.00 0.00 0.00 66 1019.0